Time,TemperatureF,DewpointF,PressureIn,WindDirection,WindDirectionDegrees,WindSpeedMPH,WindSpeedGustMPH,Humidity,HourlyPrecipIn,Conditions,Clouds,dailyrainin,SoftwareType,DateUTC
2013-03-09 00:00:00,45.0,27.9,30.18,ENE,68,3.0,8.0,51,0.00,,,0.00,Weather View 32 v70,2013-03-09 05:00:00,
2013-03-09 00:05:00,45.0,27.9,30.18,North,0,3.0,8.0,51,0.00,,,0.00,Weather View 32 v70,2013-03-09 05:05:00,
2013-03-09 00:10:00,44.0,27.0,30.19,ENE,68,3.0,8.0,51,0.00,,,0.00,Weather View 32 v70,2013-03-09 05:10:00,
2013-03-09 00:15:00,44.0,27.5,30.18,ENE,68,4.0,8.0,52,0.00,,,0.00,Weather View 32 v70,2013-03-09 05:15:00,
2013-03-09 00:20:00,44.0,27.5,30.18,North,0,5.0,8.0,52,0.00,,,0.00,Weather View 32 v70,2013-03-09 05:20:00,
2013-03-09 00:25:00,44.0,27.9,30.18,ENE,68,4.0,8.0,53,0.00,,,0.00,Weather View 32 v70,2013-03-09 05:25:00,
2013-03-09 00:30:00,44.0,27.9,30.18,ENE,68,4.0,8.0,53,0.00,,,0.00,Weather View 32 v70,2013-03-09 05:30:00,
2013-03-09 00:35:00,44.0,27.9,30.18,North,0,3.0,7.0,53,0.00,,,0.00,Weather View 32 v70,2013-03-09 05:35:00,
2013-03-09 00:40:00,44.0,27.9,30.18,ENE,68,2.0,7.0,53,0.00,,,0.00,Weather View 32 v70,2013-03-09 05:40:00,
2013-03-09 00:45:00,43.0,27.0,30.18,ENE,68,5.0,7.0,53,0.00,,,0.00,Weather View 32 v70,2013-03-09 05:45:00,
2013-03-09 00:50:00,43.0,27.5,30.18,ENE,68,3.0,7.0,54,0.00,,,0.00,Weather View 32 v70,2013-03-09 05:50:00,
2013-03-09 00:55:00,43.0,27.5,30.18,East,90,4.0,7.0,54,0.00,,,0.00,Weather View 32 v70,2013-03-09 05:55:00,
2013-03-09 01:00:00,43.0,27.5,30.18,ENE,68,5.0,7.0,54,0.00,,,0.00,Weather View 32 v70,2013-03-09 06:00:00,
2013-03-09 01:05:00,43.0,27.9,30.18,ENE,68,4.0,7.0,55,0.00,,,0.00,Weather View 32 v70,2013-03-09 06:05:00,
2013-03-09 01:10:00,43.0,27.9,30.17,ENE,68,3.0,9.0,55,0.00,,,0.00,Weather View 32 v70,2013-03-09 06:10:00,
2013-03-09 01:15:00,43.0,27.9,30.17,ENE,68,3.0,9.0,55,0.00,,,0.00,Weather View 32 v70,2013-03-09 06:15:00,
2013-03-09 01:20:00,43.0,27.9,30.17,ENE,68,3.0,9.0,55,0.00,,,0.00,Weather View 32 v70,2013-03-09 06:20:00,
2013-03-09 01:25:00,43.0,27.9,30.17,North,0,4.0,9.0,55,0.00,,,0.00,Weather View 32 v70,2013-03-09 06:25:00,
2013-03-09 01:30:00,43.0,28.4,30.18,ENE,68,4.0,9.0,56,0.00,,,0.00,Weather View 32 v70,2013-03-09 06:30:00,
2013-03-09 01:35:00,43.0,27.9,30.18,ENE,68,3.0,9.0,55,0.00,,,0.00,Weather View 32 v70,2013-03-09 06:35:00,
2013-03-09 01:40:00,43.0,28.4,30.18,North,0,3.0,9.0,56,0.00,,,0.00,Weather View 32 v70,2013-03-09 06:40:00,
2013-03-09 01:46:00,43.0,28.4,30.19,North,0,3.0,9.0,56,0.00,,,0.00,Weather View 32 v70,2013-03-09 06:46:00,
2013-03-09 01:51:00,42.0,27.4,30.19,North,0,3.0,9.0,56,0.00,,,0.00,Weather View 32 v70,2013-03-09 06:51:00,
2013-03-09 01:56:00,42.0,27.4,30.19,North,0,1.0,9.0,56,0.00,,,0.00,Weather View 32 v70,2013-03-09 06:56:00,
2013-03-09 02:01:00,42.0,27.9,30.19,North,0,3.0,9.0,57,0.00,,,0.00,Weather View 32 v70,2013-03-09 07:01:00,
2013-03-09 02:06:00,42.0,28.3,30.19,North,0,1.0,9.0,58,0.00,,,0.00,Weather View 32 v70,2013-03-09 07:06:00,
2013-03-09 02:11:00,42.0,28.7,30.20,NNW,338,1.0,9.0,59,0.00,,,0.00,Weather View 32 v70,2013-03-09 07:11:00,
2013-03-09 02:16:00,41.0,28.2,30.20,NNW,338,1.0,8.0,60,0.00,,,0.00,Weather View 32 v70,2013-03-09 07:16:00,
2013-03-09 02:21:00,41.0,29.0,30.19,ENE,68,0.0,8.0,62,0.00,,,0.00,Weather View 32 v70,2013-03-09 07:21:00,
2013-03-09 02:26:00,40.0,28.4,30.19,ENE,68,0.0,8.0,63,0.00,,,0.00,Weather View 32 v70,2013-03-09 07:26:00,
2013-03-09 02:31:00,40.0,28.8,30.20,ENE,68,0.0,7.0,64,0.00,,,0.00,Weather View 32 v70,2013-03-09 07:31:00,
2013-03-09 02:36:00,39.0,28.2,30.19,ENE,68,0.0,7.0,65,0.00,,,0.00,Weather View 32 v70,2013-03-09 07:36:00,
2013-03-09 02:41:00,39.0,28.6,30.19,North,0,1.0,7.0,66,0.00,,,0.00,Weather View 32 v70,2013-03-09 07:41:00,
2013-03-09 02:46:00,38.0,28.0,30.19,North,0,2.0,5.0,67,0.00,,,0.00,Weather View 32 v70,2013-03-09 07:46:00,
2013-03-09 02:51:00,38.0,28.4,30.19,North,0,2.0,4.0,68,0.00,,,0.00,Weather View 32 v70,2013-03-09 07:51:00,
2013-03-09 02:56:00,38.0,28.4,30.19,North,0,2.0,5.0,68,0.00,,,0.00,Weather View 32 v70,2013-03-09 07:56:00,
2013-03-09 03:01:00,38.0,28.4,30.19,North,0,3.0,5.0,68,0.00,,,0.00,Weather View 32 v70,2013-03-09 08:01:00,
2013-03-09 03:06:00,38.0,28.4,30.19,North,0,1.0,5.0,68,0.00,,,0.00,Weather View 32 v70,2013-03-09 08:06:00,
2013-03-09 03:11:00,39.0,29.0,30.19,ENE,68,2.0,5.0,67,0.00,,,0.00,Weather View 32 v70,2013-03-09 08:11:00,
2013-03-09 03:16:00,39.0,28.6,30.19,North,0,3.0,5.0,66,0.00,,,0.00,Weather View 32 v70,2013-03-09 08:16:00,
2013-03-09 03:21:00,39.0,28.6,30.19,North,0,1.0,5.0,66,0.00,,,0.00,Weather View 32 v70,2013-03-09 08:21:00,
2013-03-09 03:26:00,39.0,29.3,30.19,North,0,2.0,5.0,68,0.00,,,0.00,Weather View 32 v70,2013-03-09 08:26:00,
2013-03-09 03:31:00,38.0,28.0,30.19,NNW,338,3.0,5.0,67,0.00,,,0.00,Weather View 32 v70,2013-03-09 08:31:00,
2013-03-09 03:36:00,38.0,28.4,30.19,NNW,338,2.0,5.0,68,0.00,,,0.00,Weather View 32 v70,2013-03-09 08:36:00,
2013-03-09 03:41:00,38.0,28.7,30.19,NNW,338,1.0,5.0,69,0.00,,,0.00,Weather View 32 v70,2013-03-09 08:41:00,
2013-03-09 03:46:00,38.0,29.1,30.20,NNW,338,2.0,5.0,70,0.00,,,0.00,Weather View 32 v70,2013-03-09 08:46:00,
2013-03-09 03:51:00,37.0,28.5,30.20,NNW,338,2.0,5.0,71,0.00,,,0.00,Weather View 32 v70,2013-03-09 08:51:00,
2013-03-09 03:56:00,37.0,28.8,30.20,North,0,2.0,5.0,72,0.00,,,0.00,Weather View 32 v70,2013-03-09 08:56:00,
2013-03-09 04:01:00,37.0,29.1,30.20,North,0,3.0,5.0,73,0.00,,,0.00,Weather View 32 v70,2013-03-09 09:01:00,
2013-03-09 04:06:00,37.0,28.8,30.20,North,0,4.0,4.0,72,0.00,,,0.00,Weather View 32 v70,2013-03-09 09:06:00,
2013-03-09 04:11:00,37.0,28.5,30.20,North,0,3.0,4.0,71,0.00,,,0.00,Weather View 32 v70,2013-03-09 09:11:00,
2013-03-09 04:16:00,38.0,29.1,30.20,North,0,2.0,4.0,70,0.00,,,0.00,Weather View 32 v70,2013-03-09 09:16:00,
2013-03-09 04:21:00,38.0,28.7,30.20,North,0,2.0,4.0,69,0.00,,,0.00,Weather View 32 v70,2013-03-09 09:21:00,
2013-03-09 04:26:00,38.0,28.4,30.20,North,0,3.0,4.0,68,0.00,,,0.00,Weather View 32 v70,2013-03-09 09:26:00,
2013-03-09 04:31:00,38.0,28.4,30.20,ENE,68,1.0,4.0,68,0.00,,,0.00,Weather View 32 v70,2013-03-09 09:31:00,
2013-03-09 04:36:00,38.0,28.4,30.20,ENE,68,2.0,4.0,68,0.00,,,0.00,Weather View 32 v70,2013-03-09 09:36:00,
2013-03-09 04:41:00,38.0,28.4,30.20,North,0,3.0,4.0,68,0.00,,,0.00,Weather View 32 v70,2013-03-09 09:41:00,
2013-03-09 04:46:00,38.0,28.4,30.20,ENE,68,3.0,4.0,68,0.00,,,0.00,Weather View 32 v70,2013-03-09 09:46:00,
2013-03-09 04:51:00,38.0,28.7,30.20,ENE,68,3.0,6.0,69,0.00,,,0.00,Weather View 32 v70,2013-03-09 09:51:00,
2013-03-09 04:56:00,38.0,28.7,30.20,ENE,68,3.0,6.0,69,0.00,,,0.00,Weather View 32 v70,2013-03-09 09:56:00,
2013-03-09 05:01:00,38.0,28.7,30.20,ENE,68,3.0,6.0,69,0.00,,,0.00,Weather View 32 v70,2013-03-09 10:01:00,
2013-03-09 05:06:00,38.0,28.7,30.21,ENE,68,2.0,6.0,69,0.00,,,0.00,Weather View 32 v70,2013-03-09 10:06:00,
2013-03-09 05:11:00,38.0,28.7,30.21,ENE,68,2.0,6.0,69,0.00,,,0.00,Weather View 32 v70,2013-03-09 10:11:00,
2013-03-09 05:16:00,37.0,28.1,30.21,ENE,68,3.0,6.0,70,0.00,,,0.00,Weather View 32 v70,2013-03-09 10:16:00,
2013-03-09 05:21:00,37.0,28.1,30.21,ENE,68,2.0,6.0,70,0.00,,,0.00,Weather View 32 v70,2013-03-09 10:21:00,
2013-03-09 05:26:00,37.0,28.1,30.21,ENE,68,2.0,6.0,70,0.00,,,0.00,Weather View 32 v70,2013-03-09 10:26:00,
2013-03-09 05:31:00,37.0,28.1,30.21,ENE,68,2.0,6.0,70,0.00,,,0.00,Weather View 32 v70,2013-03-09 10:31:00,
2013-03-09 05:36:00,37.0,28.5,30.21,North,0,3.0,6.0,71,0.00,,,0.00,Weather View 32 v70,2013-03-09 10:36:00,
2013-03-09 05:41:00,37.0,28.5,30.22,North,0,2.0,6.0,71,0.00,,,0.00,Weather View 32 v70,2013-03-09 10:41:00,
2013-03-09 05:46:00,37.0,28.5,30.22,ENE,68,3.0,6.0,71,0.00,,,0.00,Weather View 32 v70,2013-03-09 10:46:00,
2013-03-09 05:51:00,37.0,28.5,30.22,North,0,3.0,6.0,71,0.00,,,0.00,Weather View 32 v70,2013-03-09 10:51:00,
2013-03-09 05:56:00,37.0,28.5,30.22,North,0,2.0,6.0,71,0.00,,,0.00,Weather View 32 v70,2013-03-09 10:56:00,
2013-03-09 06:01:00,37.0,28.8,30.22,ENE,68,2.0,6.0,72,0.00,,,0.00,Weather View 32 v70,2013-03-09 11:01:00,
2013-03-09 06:06:00,37.0,28.8,30.22,ENE,68,3.0,6.0,72,0.00,,,0.00,Weather View 32 v70,2013-03-09 11:06:00,
2013-03-09 06:11:00,37.0,28.8,30.22,ENE,68,3.0,6.0,72,0.00,,,0.00,Weather View 32 v70,2013-03-09 11:11:00,
2013-03-09 06:16:00,37.0,28.8,30.23,North,0,1.0,6.0,72,0.00,,,0.00,Weather View 32 v70,2013-03-09 11:16:00,
2013-03-09 06:21:00,37.0,28.8,30.23,North,0,3.0,6.0,72,0.00,,,0.00,Weather View 32 v70,2013-03-09 11:21:00,
2013-03-09 06:26:00,36.0,28.2,30.22,ENE,68,3.0,5.0,73,0.00,,,0.00,Weather View 32 v70,2013-03-09 11:26:00,
2013-03-09 06:31:00,36.0,28.2,30.22,ENE,68,1.0,5.0,73,0.00,,,0.00,Weather View 32 v70,2013-03-09 11:31:00,
2013-03-09 06:36:00,36.0,28.5,30.23,North,0,1.0,5.0,74,0.00,,,0.00,Weather View 32 v70,2013-03-09 11:36:00,
2013-03-09 06:41:00,36.0,28.5,30.23,ENE,68,3.0,5.0,74,0.00,,,0.00,Weather View 32 v70,2013-03-09 11:41:00,
2013-03-09 06:46:00,36.0,28.5,30.23,ENE,68,2.0,5.0,74,0.00,,,0.00,Weather View 32 v70,2013-03-09 11:46:00,
2013-03-09 06:51:00,36.0,28.8,30.23,ENE,68,1.0,5.0,75,0.00,,,0.00,Weather View 32 v70,2013-03-09 11:51:00,
2013-03-09 06:56:00,36.0,29.5,30.23,ENE,68,1.0,5.0,77,0.00,,,0.00,Weather View 32 v70,2013-03-09 11:56:00,
2013-03-09 07:01:00,36.0,29.5,30.23,ENE,68,1.0,5.0,77,0.00,,,0.00,Weather View 32 v70,2013-03-09 12:01:00,
2013-03-09 07:06:00,35.0,28.5,30.23,ENE,68,1.0,4.0,77,0.00,,,0.00,Weather View 32 v70,2013-03-09 12:06:00,
2013-03-09 07:11:00,35.0,28.8,30.23,North,0,1.0,4.0,78,0.00,,,0.00,Weather View 32 v70,2013-03-09 12:11:00,
2013-03-09 07:16:00,35.0,28.8,30.23,ENE,68,1.0,4.0,78,0.00,,,0.00,Weather View 32 v70,2013-03-09 12:16:00,
2013-03-09 07:21:00,36.0,29.8,30.23,ENE,68,1.0,4.0,78,0.00,,,0.00,Weather View 32 v70,2013-03-09 12:21:00,
2013-03-09 07:26:00,36.0,29.5,30.23,ENE,68,2.0,4.0,77,0.00,,,0.00,Weather View 32 v70,2013-03-09 12:26:00,
2013-03-09 07:31:00,36.0,29.2,30.23,ENE,68,3.0,3.0,76,0.00,,,0.00,Weather View 32 v70,2013-03-09 12:31:00,
2013-03-09 07:36:00,37.0,29.8,30.23,ENE,68,3.0,3.0,75,0.00,,,0.00,Weather View 32 v70,2013-03-09 12:36:00,
2013-03-09 07:41:00,38.0,30.4,30.23,ENE,68,3.0,5.0,74,0.00,,,0.00,Weather View 32 v70,2013-03-09 12:41:00,
2013-03-09 07:46:00,38.0,30.1,30.23,North,0,3.0,6.0,73,0.00,,,0.00,Weather View 32 v70,2013-03-09 12:46:00,
2013-03-09 07:51:00,39.0,30.4,30.23,North,0,3.0,7.0,71,0.00,,,0.00,Weather View 32 v70,2013-03-09 12:51:00,
2013-03-09 07:56:00,40.0,31.0,30.23,ENE,68,3.0,7.0,70,0.00,,,0.00,Weather View 32 v70,2013-03-09 12:56:00,
2013-03-09 08:01:00,40.0,30.3,30.24,ENE,68,4.0,7.0,68,0.00,,,0.00,Weather View 32 v70,2013-03-09 13:01:00,
2013-03-09 08:06:00,41.0,30.9,30.24,ENE,68,5.0,7.0,67,0.00,,,0.00,Weather View 32 v70,2013-03-09 13:06:00,
2013-03-09 08:11:00,42.0,31.1,30.24,ENE,68,3.0,7.0,65,0.00,,,0.00,Weather View 32 v70,2013-03-09 13:11:00,
2013-03-09 08:16:00,42.0,31.1,30.24,ENE,68,6.0,7.0,65,0.00,,,0.00,Weather View 32 v70,2013-03-09 13:16:00,
2013-03-09 08:21:00,43.0,31.2,30.24,North,0,5.0,8.0,63,0.00,,,0.00,Weather View 32 v70,2013-03-09 13:21:00,
2013-03-09 08:26:00,44.0,31.8,30.25,ENE,68,3.0,8.0,62,0.00,,,0.00,Weather View 32 v70,2013-03-09 13:26:00,
2013-03-09 08:31:00,44.0,31.0,30.25,ENE,68,4.0,8.0,60,0.00,,,0.00,Weather View 32 v70,2013-03-09 13:31:00,
2013-03-09 08:37:00,45.0,31.5,30.25,North,0,5.0,9.0,59,0.00,,,0.00,Weather View 32 v70,2013-03-09 13:37:00,
2013-03-09 08:42:00,46.0,32.0,30.24,North,0,4.0,9.0,58,0.00,,,0.00,Weather View 32 v70,2013-03-09 13:42:00,
2013-03-09 08:47:00,47.0,32.1,30.25,ENE,68,5.0,9.0,56,0.00,,,0.00,Weather View 32 v70,2013-03-09 13:47:00,
2013-03-09 08:52:00,48.0,32.6,30.25,East,90,5.0,9.0,55,0.00,,,0.00,Weather View 32 v70,2013-03-09 13:52:00,
2013-03-09 08:57:00,48.0,31.7,30.25,ENE,68,5.0,9.0,53,0.00,,,0.00,Weather View 32 v70,2013-03-09 13:57:00,
2013-03-09 09:02:00,49.0,32.1,30.25,ENE,68,4.0,10.0,52,0.00,,,0.00,Weather View 32 v70,2013-03-09 14:02:00,
2013-03-09 09:07:00,49.0,31.6,30.25,North,0,4.0,10.0,51,0.00,,,0.00,Weather View 32 v70,2013-03-09 14:07:00,
2013-03-09 09:12:00,50.0,32.1,30.25,ENE,68,4.0,10.0,50,0.00,,,0.00,Weather View 32 v70,2013-03-09 14:12:00,
2013-03-09 09:17:00,51.0,33.0,30.25,East,90,3.0,10.0,50,0.00,,,0.00,Weather View 32 v70,2013-03-09 14:17:00,
2013-03-09 09:22:00,52.0,33.4,30.26,ENE,68,1.0,10.0,49,0.00,,,0.00,Weather View 32 v70,2013-03-09 14:22:00,
2013-03-09 09:27:00,52.0,32.9,30.26,East,90,3.0,10.0,48,0.00,,,0.00,Weather View 32 v70,2013-03-09 14:27:00,
2013-03-09 09:32:00,51.0,31.4,30.25,ENE,68,4.0,11.0,47,0.00,,,0.00,Weather View 32 v70,2013-03-09 14:32:00,
2013-03-09 09:37:00,51.0,32.0,30.26,East,90,4.0,11.0,48,0.00,,,0.00,Weather View 32 v70,2013-03-09 14:37:00,
2013-03-09 09:42:00,52.0,32.4,30.26,ENE,68,6.0,12.0,47,0.00,,,0.00,Weather View 32 v70,2013-03-09 14:42:00,
2013-03-09 09:47:00,52.0,31.8,30.26,ENE,68,6.0,12.0,46,0.00,,,0.00,Weather View 32 v70,2013-03-09 14:47:00,
2013-03-09 09:52:00,52.0,31.8,30.26,ENE,68,3.0,12.0,46,0.00,,,0.00,Weather View 32 v70,2013-03-09 14:52:00,
2013-03-09 09:57:00,53.0,32.2,30.26,North,0,5.0,12.0,45,0.00,,,0.00,Weather View 32 v70,2013-03-09 14:57:00,
2013-03-09 10:02:00,54.0,32.5,30.25,North,0,3.0,12.0,44,0.00,,,0.00,Weather View 32 v70,2013-03-09 15:02:00,
2013-03-09 10:07:00,54.0,32.0,30.25,North,0,3.0,12.0,43,0.00,,,0.00,Weather View 32 v70,2013-03-09 15:07:00,
2013-03-09 10:12:00,55.0,32.9,30.25,East,90,3.0,12.0,43,0.00,,,0.00,Weather View 32 v70,2013-03-09 15:12:00,
2013-03-09 10:17:00,55.0,32.3,30.25,NNW,338,3.0,12.0,42,0.00,,,0.00,Weather View 32 v70,2013-03-09 15:17:00,
2013-03-09 10:22:00,55.0,31.7,30.24,ENE,68,6.0,12.0,41,0.00,,,0.00,Weather View 32 v70,2013-03-09 15:22:00,
2013-03-09 10:27:00,55.0,31.7,30.24,North,0,2.0,12.0,41,0.00,,,0.00,Weather View 32 v70,2013-03-09 15:27:00,
2013-03-09 10:32:00,56.0,33.2,30.24,East,90,4.0,12.0,42,0.00,,,0.00,Weather View 32 v70,2013-03-09 15:32:00,
2013-03-09 10:37:00,57.0,34.1,30.24,East,90,3.0,12.0,42,0.00,,,0.00,Weather View 32 v70,2013-03-09 15:37:00,
2013-03-09 10:42:00,57.0,32.9,30.24,North,0,3.0,10.0,40,0.00,,,0.00,Weather View 32 v70,2013-03-09 15:42:00,
2013-03-09 10:47:00,57.0,32.9,30.24,NNW,338,5.0,10.0,40,0.00,,,0.00,Weather View 32 v70,2013-03-09 15:47:00,
2013-03-09 10:52:00,57.0,32.9,30.25,North,0,5.0,10.0,40,0.00,,,0.00,Weather View 32 v70,2013-03-09 15:52:00,
2013-03-09 10:57:00,56.0,32.0,30.25,ENE,68,3.0,10.0,40,0.00,,,0.00,Weather View 32 v70,2013-03-09 15:57:00,
2013-03-09 11:02:00,55.0,31.7,30.24,ENE,68,3.0,10.0,41,0.00,,,0.00,Weather View 32 v70,2013-03-09 16:02:00,
2013-03-09 11:08:00,55.0,31.7,30.24,ENE,68,3.0,10.0,41,0.00,,,0.00,Weather View 32 v70,2013-03-09 16:08:00,
2013-03-09 11:13:00,55.0,31.7,30.24,WSW,248,3.0,10.0,41,0.00,,,0.00,Weather View 32 v70,2013-03-09 16:13:00,
2013-03-09 11:18:00,55.0,32.3,30.24,North,0,3.0,10.0,42,0.00,,,0.00,Weather View 32 v70,2013-03-09 16:18:00,
2013-03-09 11:23:00,56.0,33.2,30.24,North,0,2.0,10.0,42,0.00,,,0.00,Weather View 32 v70,2013-03-09 16:23:00,
2013-03-09 11:28:00,56.0,33.2,30.25,East,90,0.0,10.0,42,0.00,,,0.00,Weather View 32 v70,2013-03-09 16:28:00,
2013-03-09 11:33:00,56.0,32.6,30.25,East,90,4.0,10.0,41,0.00,,,0.00,Weather View 32 v70,2013-03-09 16:33:00,
2013-03-09 11:38:00,56.0,32.6,30.25,West,270,5.0,10.0,41,0.00,,,0.00,Weather View 32 v70,2013-03-09 16:38:00,
2013-03-09 11:43:00,56.0,32.6,30.24,WSW,248,3.0,8.0,41,0.00,,,0.00,Weather View 32 v70,2013-03-09 16:43:00,
2013-03-09 11:48:00,57.0,33.5,30.24,East,90,1.0,8.0,41,0.00,,,0.00,Weather View 32 v70,2013-03-09 16:48:00,
2013-03-09 11:53:00,57.0,34.1,30.24,SSE,158,2.0,8.0,42,0.00,,,0.00,Weather View 32 v70,2013-03-09 16:53:00,
2013-03-09 11:58:00,58.0,34.4,30.24,SSE,158,5.0,8.0,41,0.00,,,0.00,Weather View 32 v70,2013-03-09 16:58:00,
2013-03-09 12:03:00,58.0,35.0,30.24,ENE,68,5.0,8.0,42,0.00,,,0.00,Weather View 32 v70,2013-03-09 17:03:00,
2013-03-09 12:08:00,58.0,33.1,30.23,North,0,0.0,8.0,39,0.00,,,0.00,Weather View 32 v70,2013-03-09 17:08:00,
2013-03-09 12:13:00,58.0,33.1,30.23,North,0,6.0,8.0,39,0.00,,,0.00,Weather View 32 v70,2013-03-09 17:13:00,
2013-03-09 12:18:00,58.0,33.1,30.23,North,0,3.0,8.0,39,0.00,,,0.00,Weather View 32 v70,2013-03-09 17:18:00,
2013-03-09 12:23:00,57.0,32.2,30.23,ENE,68,1.0,8.0,39,0.00,,,0.00,Weather View 32 v70,2013-03-09 17:23:00,
2013-03-09 12:28:00,57.0,32.9,30.22,East,90,0.0,8.0,40,0.00,,,0.00,Weather View 32 v70,2013-03-09 17:28:00,
2013-03-09 12:33:00,58.0,33.8,30.22,East,90,1.0,8.0,40,0.00,,,0.00,Weather View 32 v70,2013-03-09 17:33:00,
2013-03-09 12:38:00,58.0,33.1,30.22,SSE,158,1.0,8.0,39,0.00,,,0.00,Weather View 32 v70,2013-03-09 17:38:00,
2013-03-09 12:43:00,59.0,35.3,30.22,East,90,3.0,8.0,41,0.00,,,0.00,Weather View 32 v70,2013-03-09 17:43:00,
2013-03-09 12:48:00,59.0,34.0,30.22,North,0,1.0,8.0,39,0.00,,,0.00,Weather View 32 v70,2013-03-09 17:48:00,
2013-03-09 12:53:00,59.0,34.0,30.22,East,90,2.0,8.0,39,0.00,,,0.00,Weather View 32 v70,2013-03-09 17:53:00,
2013-03-09 12:58:00,59.0,35.3,30.22,SSE,158,5.0,8.0,41,0.00,,,0.00,Weather View 32 v70,2013-03-09 17:58:00,
2013-03-09 13:03:00,59.0,33.4,30.21,East,90,2.0,8.0,38,0.00,,,0.00,Weather View 32 v70,2013-03-09 18:03:00,
2013-03-09 13:08:00,60.0,34.3,30.21,ENE,68,2.0,8.0,38,0.00,,,0.00,Weather View 32 v70,2013-03-09 18:08:00,
2013-03-09 13:13:00,59.0,32.7,30.21,ENE,68,1.0,8.0,37,0.00,,,0.00,Weather View 32 v70,2013-03-09 18:13:00,
2013-03-09 13:18:00,60.0,32.9,30.21,North,0,3.0,8.0,36,0.00,,,0.00,Weather View 32 v70,2013-03-09 18:18:00,
2013-03-09 13:23:00,60.0,33.6,30.21,East,90,1.0,8.0,37,0.00,,,0.00,Weather View 32 v70,2013-03-09 18:23:00,
2013-03-09 13:28:00,60.0,33.6,30.20,East,90,1.0,8.0,37,0.00,,,0.00,Weather View 32 v70,2013-03-09 18:28:00,
2013-03-09 13:33:00,60.0,32.9,30.20,ENE,68,6.0,6.0,36,0.00,,,0.00,Weather View 32 v70,2013-03-09 18:33:00,
2013-03-09 13:38:00,60.0,32.9,30.20,North,0,3.0,8.0,36,0.00,,,0.00,Weather View 32 v70,2013-03-09 18:38:00,
2013-03-09 13:43:00,60.0,32.2,30.20,ENE,68,4.0,8.0,35,0.00,,,0.00,Weather View 32 v70,2013-03-09 18:43:00,
2013-03-09 13:48:00,60.0,32.2,30.20,South,180,1.0,8.0,35,0.00,,,0.00,Weather View 32 v70,2013-03-09 18:48:00,
2013-03-09 13:53:00,61.0,34.5,30.19,ENE,68,3.0,8.0,37,0.00,,,0.00,Weather View 32 v70,2013-03-09 18:53:00,
2013-03-09 13:58:00,61.0,33.8,30.19,ENE,68,0.0,8.0,36,0.00,,,0.00,Weather View 32 v70,2013-03-09 18:58:00,
2013-03-09 14:03:00,61.0,33.1,30.19,WSW,248,5.0,8.0,35,0.00,,,0.00,Weather View 32 v70,2013-03-09 19:03:00,
2013-03-09 14:09:00,61.0,34.5,30.19,WSW,248,2.0,8.0,37,0.00,,,0.00,Weather View 32 v70,2013-03-09 19:09:00,
2013-03-09 14:14:00,61.0,33.8,30.19,East,90,1.0,8.0,36,0.00,,,0.00,Weather View 32 v70,2013-03-09 19:14:00,
2013-03-09 14:19:00,61.0,34.5,30.18,West,270,3.0,8.0,37,0.00,,,0.00,Weather View 32 v70,2013-03-09 19:19:00,
2013-03-09 14:24:00,61.0,33.8,30.18,North,0,3.0,9.0,36,0.00,,,0.00,Weather View 32 v70,2013-03-09 19:24:00,
2013-03-09 14:29:00,61.0,33.8,30.18,ENE,68,2.0,9.0,36,0.00,,,0.00,Weather View 32 v70,2013-03-09 19:29:00,
2013-03-09 14:34:00,62.0,34.7,30.18,South,180,4.0,9.0,36,0.00,,,0.00,Weather View 32 v70,2013-03-09 19:34:00,
2013-03-09 14:39:00,62.0,34.7,30.17,West,270,8.0,11.0,36,0.00,,,0.00,Weather View 32 v70,2013-03-09 19:39:00,
2013-03-09 14:44:00,62.0,34.7,30.17,NNW,338,4.0,11.0,36,0.00,,,0.00,Weather View 32 v70,2013-03-09 19:44:00,
2013-03-09 14:49:00,62.0,33.2,30.17,NNW,338,3.0,11.0,34,0.00,,,0.00,Weather View 32 v70,2013-03-09 19:49:00,
2013-03-09 14:54:00,62.0,32.5,30.17,ENE,68,3.0,11.0,33,0.00,,,0.00,Weather View 32 v70,2013-03-09 19:54:00,
2013-03-09 14:59:00,62.0,32.5,30.16,NNW,338,4.0,11.0,33,0.00,,,0.00,Weather View 32 v70,2013-03-09 19:59:00,
2013-03-09 15:04:00,62.0,32.5,30.16,East,90,1.0,11.0,33,0.00,,,0.00,Weather View 32 v70,2013-03-09 20:04:00,
2013-03-09 15:09:00,62.0,33.2,30.16,WSW,248,3.0,11.0,34,0.00,,,0.00,Weather View 32 v70,2013-03-09 20:09:00,
2013-03-09 15:14:00,62.0,31.7,30.16,North,0,3.0,11.0,32,0.00,,,0.00,Weather View 32 v70,2013-03-09 20:14:00,
2013-03-09 15:19:00,62.0,31.7,30.16,North,0,2.0,11.0,32,0.00,,,0.00,Weather View 32 v70,2013-03-09 20:19:00,
2013-03-09 15:24:00,62.0,31.7,30.15,WSW,248,1.0,11.0,32,0.00,,,0.00,Weather View 32 v70,2013-03-09 20:24:00,
2013-03-09 15:29:00,62.0,33.2,30.15,NNW,338,3.0,11.0,34,0.00,,,0.00,Weather View 32 v70,2013-03-09 20:29:00,
2013-03-09 15:34:00,62.0,31.7,30.15,West,270,1.0,11.0,32,0.00,,,0.00,Weather View 32 v70,2013-03-09 20:34:00,
2013-03-09 15:39:00,62.0,31.7,30.15,ENE,68,2.0,8.0,32,0.00,,,0.00,Weather View 32 v70,2013-03-09 20:39:00,
2013-03-09 15:44:00,62.0,31.0,30.15,NNW,338,1.0,8.0,31,0.00,,,0.00,Weather View 32 v70,2013-03-09 20:44:00,
2013-03-09 15:49:00,62.0,31.0,30.15,North,0,0.0,8.0,31,0.00,,,0.00,Weather View 32 v70,2013-03-09 20:49:00,
2013-03-09 15:54:00,62.0,31.0,30.15,North,0,2.0,8.0,31,0.00,,,0.00,Weather View 32 v70,2013-03-09 20:54:00,
2013-03-09 15:59:00,62.0,31.7,30.14,ENE,68,1.0,8.0,32,0.00,,,0.00,Weather View 32 v70,2013-03-09 20:59:00,
2013-03-09 16:04:00,62.0,31.0,30.15,East,90,1.0,8.0,31,0.00,,,0.00,Weather View 32 v70,2013-03-09 21:04:00,
2013-03-09 16:09:00,62.0,31.7,30.15,South,180,1.0,8.0,32,0.00,,,0.00,Weather View 32 v70,2013-03-09 21:09:00,
2013-03-09 16:14:00,62.0,31.7,30.15,East,90,1.0,8.0,32,0.00,,,0.00,Weather View 32 v70,2013-03-09 21:14:00,
2013-03-09 16:19:00,62.0,31.0,30.15,SSE,158,1.0,8.0,31,0.00,,,0.00,Weather View 32 v70,2013-03-09 21:19:00,
2013-03-09 16:24:00,62.0,31.7,30.15,ENE,68,1.0,8.0,32,0.00,,,0.00,Weather View 32 v70,2013-03-09 21:24:00,
2013-03-09 16:30:00,62.0,31.0,30.14,East,90,0.0,8.0,31,0.00,,,0.00,Weather View 32 v70,2013-03-09 21:30:00,
2013-03-09 16:35:00,62.0,31.0,30.14,ENE,68,2.0,7.0,31,0.00,,,0.00,Weather View 32 v70,2013-03-09 21:35:00,
2013-03-09 16:40:00,62.0,31.0,30.14,ENE,68,1.0,7.0,31,0.00,,,0.00,Weather View 32 v70,2013-03-09 21:40:00,
2013-03-09 16:45:00,62.0,31.0,30.14,East,90,3.0,6.0,31,0.00,,,0.00,Weather View 32 v70,2013-03-09 21:45:00,
2013-03-09 16:50:00,62.0,31.0,30.14,SSE,158,1.0,6.0,31,0.00,,,0.00,Weather View 32 v70,2013-03-09 21:50:00,
2013-03-09 16:55:00,62.0,31.0,30.14,West,270,1.0,6.0,31,0.00,,,0.00,Weather View 32 v70,2013-03-09 21:55:00,
2013-03-09 17:00:00,62.0,31.0,30.14,WSW,248,4.0,6.0,31,0.00,,,0.00,Weather View 32 v70,2013-03-09 22:00:00,
2013-03-09 17:05:00,62.0,31.0,30.13,ENE,68,1.0,5.0,31,0.00,,,0.00,Weather View 32 v70,2013-03-09 22:05:00,
2013-03-09 17:10:00,62.0,33.2,30.13,WSW,248,2.0,5.0,34,0.00,,,0.00,Weather View 32 v70,2013-03-09 22:10:00,
2013-03-09 17:15:00,62.0,33.2,30.14,WSW,248,5.0,6.0,34,0.00,,,0.00,Weather View 32 v70,2013-03-09 22:15:00,
2013-03-09 17:20:00,62.0,31.7,30.13,North,0,0.0,6.0,32,0.00,,,0.00,Weather View 32 v70,2013-03-09 22:20:00,
2013-03-09 17:25:00,61.0,31.6,30.13,South,180,4.0,6.0,33,0.00,,,0.00,Weather View 32 v70,2013-03-09 22:25:00,
2013-03-09 17:30:00,61.0,32.4,30.13,South,180,1.0,6.0,34,0.00,,,0.00,Weather View 32 v70,2013-03-09 22:30:00,
2013-03-09 17:35:00,61.0,32.4,30.13,South,180,2.0,6.0,34,0.00,,,0.00,Weather View 32 v70,2013-03-09 22:35:00,
2013-03-09 17:40:00,61.0,32.4,30.13,South,180,3.0,6.0,34,0.00,,,0.00,Weather View 32 v70,2013-03-09 22:40:00,
2013-03-09 17:45:00,61.0,32.4,30.13,South,180,1.0,6.0,34,0.00,,,0.00,Weather View 32 v70,2013-03-09 22:45:00,
2013-03-09 17:50:00,60.0,31.5,30.13,South,180,2.0,6.0,34,0.00,,,0.00,Weather View 32 v70,2013-03-09 22:50:00,
2013-03-09 17:55:00,60.0,32.9,30.13,East,90,0.0,6.0,36,0.00,,,0.00,Weather View 32 v70,2013-03-09 22:55:00,
2013-03-09 18:00:00,60.0,32.2,30.13,East,90,0.0,6.0,35,0.00,,,0.00,Weather View 32 v70,2013-03-09 23:00:00,
2013-03-09 18:05:00,59.0,31.3,30.14,SSE,158,0.0,6.0,35,0.00,,,0.00,Weather View 32 v70,2013-03-09 23:05:00,
2013-03-09 18:10:00,59.0,31.3,30.14,ENE,68,0.0,6.0,35,0.00,,,0.00,Weather View 32 v70,2013-03-09 23:10:00,
2013-03-09 18:15:00,59.0,32.0,30.14,East,90,0.0,6.0,36,0.00,,,0.00,Weather View 32 v70,2013-03-09 23:15:00,
2013-03-09 18:20:00,58.0,31.8,30.14,East,90,1.0,5.0,37,0.00,,,0.00,Weather View 32 v70,2013-03-09 23:20:00,
2013-03-09 18:25:00,58.0,33.1,30.14,East,90,1.0,5.0,39,0.00,,,0.00,Weather View 32 v70,2013-03-09 23:25:00,
2013-03-09 18:30:00,58.0,33.8,30.14,East,90,1.0,4.0,40,0.00,,,0.00,Weather View 32 v70,2013-03-09 23:30:00,
2013-03-09 18:35:00,57.0,33.5,30.14,SSE,158,1.0,4.0,41,0.00,,,0.00,Weather View 32 v70,2013-03-09 23:35:00,
2013-03-09 18:40:00,57.0,33.5,30.14,East,90,3.0,4.0,41,0.00,,,0.00,Weather View 32 v70,2013-03-09 23:40:00,
2013-03-09 18:45:00,57.0,33.5,30.14,SSE,158,2.0,5.0,41,0.00,,,0.00,Weather View 32 v70,2013-03-09 23:45:00,
2013-03-09 18:50:00,57.0,34.1,30.14,SSE,158,2.0,5.0,42,0.00,,,0.00,Weather View 32 v70,2013-03-09 23:50:00,
2013-03-09 18:55:00,56.0,33.8,30.14,ENE,68,1.0,6.0,43,0.00,,,0.00,Weather View 32 v70,2013-03-09 23:55:00,
2013-03-09 19:00:00,56.0,33.8,30.14,SSE,158,2.0,6.0,43,0.00,,,0.00,Weather View 32 v70,2013-03-10 00:00:00,
2013-03-09 19:05:00,56.0,33.8,30.14,East,90,1.0,6.0,43,0.00,,,0.00,Weather View 32 v70,2013-03-10 00:05:00,
2013-03-09 19:11:00,56.0,34.9,30.14,East,90,3.0,6.0,45,0.00,,,0.00,Weather View 32 v70,2013-03-10 00:11:00,
2013-03-09 19:16:00,55.0,34.6,30.14,East,90,3.0,6.0,46,0.00,,,0.00,Weather View 32 v70,2013-03-10 00:16:00,
2013-03-09 19:21:00,55.0,34.6,30.14,East,90,3.0,6.0,46,0.00,,,0.00,Weather View 32 v70,2013-03-10 00:21:00,
2013-03-09 19:26:00,55.0,34.6,30.14,SSE,158,1.0,6.0,46,0.00,,,0.00,Weather View 32 v70,2013-03-10 00:26:00,
2013-03-09 19:31:00,55.0,35.1,30.14,East,90,4.0,6.0,47,0.00,,,0.00,Weather View 32 v70,2013-03-10 00:31:00,
2013-03-09 19:36:00,54.0,34.7,30.14,East,90,3.0,6.0,48,0.00,,,0.00,Weather View 32 v70,2013-03-10 00:36:00,
2013-03-09 19:41:00,54.0,34.7,30.14,East,90,2.0,6.0,48,0.00,,,0.00,Weather View 32 v70,2013-03-10 00:41:00,
2013-03-09 19:46:00,54.0,34.7,30.13,SSE,158,3.0,6.0,48,0.00,,,0.00,Weather View 32 v70,2013-03-10 00:46:00,
2013-03-09 19:51:00,54.0,35.2,30.14,SSE,158,3.0,6.0,49,0.00,,,0.00,Weather View 32 v70,2013-03-10 00:51:00,
2013-03-09 19:56:00,54.0,35.7,30.13,East,90,6.0,7.0,50,0.00,,,0.00,Weather View 32 v70,2013-03-10 00:56:00,
2013-03-09 20:01:00,53.0,34.8,30.14,East,90,3.0,7.0,50,0.00,,,0.00,Weather View 32 v70,2013-03-10 01:01:00,
2013-03-09 20:06:00,53.0,34.3,30.14,SSE,158,2.0,7.0,49,0.00,,,0.00,Weather View 32 v70,2013-03-10 01:06:00,
2013-03-09 20:11:00,53.0,34.3,30.14,SSE,158,2.0,7.0,49,0.00,,,0.00,Weather View 32 v70,2013-03-10 01:11:00,
2013-03-09 20:16:00,53.0,34.8,30.14,East,90,2.0,7.0,50,0.00,,,0.00,Weather View 32 v70,2013-03-10 01:16:00,
2013-03-09 20:21:00,53.0,35.3,30.14,SSE,158,1.0,7.0,51,0.00,,,0.00,Weather View 32 v70,2013-03-10 01:21:00,
2013-03-09 20:26:00,53.0,35.3,30.14,East,90,2.0,7.0,51,0.00,,,0.00,Weather View 32 v70,2013-03-10 01:26:00,
2013-03-09 20:31:00,53.0,35.8,30.14,SSE,158,2.0,7.0,52,0.00,,,0.00,Weather View 32 v70,2013-03-10 01:31:00,
2013-03-09 20:36:00,52.0,34.9,30.14,SSE,158,2.0,7.0,52,0.00,,,0.00,Weather View 32 v70,2013-03-10 01:36:00,
2013-03-09 20:41:00,52.0,35.4,30.14,East,90,3.0,7.0,53,0.00,,,0.00,Weather View 32 v70,2013-03-10 01:41:00,
2013-03-09 20:46:00,52.0,35.4,30.14,SSE,158,5.0,7.0,53,0.00,,,0.00,Weather View 32 v70,2013-03-10 01:46:00,
2013-03-09 20:51:00,52.0,35.4,30.14,East,90,5.0,7.0,53,0.00,,,0.00,Weather View 32 v70,2013-03-10 01:51:00,
2013-03-09 20:56:00,52.0,35.4,30.14,East,90,5.0,7.0,53,0.00,,,0.00,Weather View 32 v70,2013-03-10 01:56:00,
2013-03-09 21:01:00,52.0,35.4,30.15,East,90,3.0,7.0,53,0.00,,,0.00,Weather View 32 v70,2013-03-10 02:01:00,
2013-03-09 21:06:00,52.0,35.4,30.15,East,90,1.0,6.0,53,0.00,,,0.00,Weather View 32 v70,2013-03-10 02:06:00,
2013-03-09 21:11:00,52.0,35.4,30.15,East,90,3.0,6.0,53,0.00,,,0.00,Weather View 32 v70,2013-03-10 02:11:00,
2013-03-09 21:17:00,51.0,34.9,30.15,East,90,2.0,6.0,54,0.00,,,0.00,Weather View 32 v70,2013-03-10 02:17:00,
2013-03-09 21:22:00,51.0,35.4,30.15,SSE,158,3.0,6.0,55,0.00,,,0.00,Weather View 32 v70,2013-03-10 02:22:00,
2013-03-09 21:27:00,51.0,35.4,30.16,SSE,158,1.0,6.0,55,0.00,,,0.00,Weather View 32 v70,2013-03-10 02:27:00,
2013-03-09 21:32:00,51.0,35.8,30.16,SSE,158,1.0,6.0,56,0.00,,,0.00,Weather View 32 v70,2013-03-10 02:32:00,
2013-03-09 21:37:00,50.0,35.3,30.16,SSE,158,1.0,6.0,57,0.00,,,0.00,Weather View 32 v70,2013-03-10 02:37:00,
2013-03-09 21:42:00,50.0,35.8,30.16,SSE,158,1.0,6.0,58,0.00,,,0.00,Weather View 32 v70,2013-03-10 02:42:00,
2013-03-09 21:47:00,49.0,35.7,30.16,East,90,0.0,6.0,60,0.00,,,0.00,Weather View 32 v70,2013-03-10 02:47:00,
2013-03-09 21:52:00,49.0,35.7,30.16,SSE,158,1.0,6.0,60,0.00,,,0.00,Weather View 32 v70,2013-03-10 02:52:00,
2013-03-09 21:57:00,49.0,36.1,30.16,SSE,158,1.0,6.0,61,0.00,,,0.00,Weather View 32 v70,2013-03-10 02:57:00,
2013-03-09 22:02:00,48.0,35.6,30.16,East,90,1.0,5.0,62,0.00,,,0.00,Weather View 32 v70,2013-03-10 03:02:00,
2013-03-09 22:07:00,48.0,36.0,30.16,ENE,68,0.0,5.0,63,0.00,,,0.00,Weather View 32 v70,2013-03-10 03:07:00,
2013-03-09 22:12:00,48.0,36.4,30.16,East,90,1.0,4.0,64,0.00,,,0.00,Weather View 32 v70,2013-03-10 03:12:00,
2013-03-09 22:17:00,47.0,35.8,30.16,East,90,2.0,4.0,65,0.00,,,0.00,Weather View 32 v70,2013-03-10 03:17:00,
2013-03-09 22:22:00,47.0,35.8,30.16,SSE,158,3.0,4.0,65,0.00,,,0.00,Weather View 32 v70,2013-03-10 03:22:00,
2013-03-09 22:27:00,47.0,36.2,30.16,East,90,3.0,4.0,66,0.00,,,0.00,Weather View 32 v70,2013-03-10 03:27:00,
2013-03-09 22:32:00,47.0,36.2,30.16,East,90,2.0,5.0,66,0.00,,,0.00,Weather View 32 v70,2013-03-10 03:32:00,
2013-03-09 22:37:00,47.0,36.2,30.16,East,90,1.0,5.0,66,0.00,,,0.00,Weather View 32 v70,2013-03-10 03:37:00,
2013-03-09 22:42:00,46.0,35.6,30.16,East,90,1.0,5.0,67,0.00,,,0.00,Weather View 32 v70,2013-03-10 03:42:00,
2013-03-09 22:47:00,46.0,35.6,30.16,East,90,1.0,5.0,67,0.00,,,0.00,Weather View 32 v70,2013-03-10 03:47:00,
2013-03-09 22:52:00,46.0,36.0,30.16,East,90,1.0,5.0,68,0.00,,,0.00,Weather View 32 v70,2013-03-10 03:52:00,
2013-03-09 22:57:00,46.0,36.0,30.16,East,90,1.0,5.0,68,0.00,,,0.00,Weather View 32 v70,2013-03-10 03:57:00,
2013-03-09 23:02:00,46.0,36.4,30.16,East,90,1.0,5.0,69,0.00,,,0.00,Weather View 32 v70,2013-03-10 04:02:00,
2013-03-09 23:07:00,46.0,36.4,30.16,East,90,0.0,5.0,69,0.00,,,0.00,Weather View 32 v70,2013-03-10 04:07:00,
2013-03-09 23:12:00,46.0,36.4,30.16,SSE,158,1.0,5.0,69,0.00,,,0.00,Weather View 32 v70,2013-03-10 04:12:00,
2013-03-09 23:17:00,46.0,36.4,30.16,East,90,0.0,5.0,69,0.00,,,0.00,Weather View 32 v70,2013-03-10 04:17:00,
2013-03-09 23:22:00,46.0,36.4,30.16,ENE,68,0.0,5.0,69,0.00,,,0.00,Weather View 32 v70,2013-03-10 04:22:00,
2013-03-09 23:27:00,46.0,36.8,30.16,East,90,0.0,5.0,70,0.00,,,0.00,Weather View 32 v70,2013-03-10 04:27:00,
2013-03-09 23:32:00,46.0,36.8,30.16,ENE,68,0.0,3.0,70,0.00,,,0.00,Weather View 32 v70,2013-03-10 04:32:00,
2013-03-09 23:37:00,46.0,36.8,30.16,ENE,68,0.0,3.0,70,0.00,,,0.00,Weather View 32 v70,2013-03-10 04:37:00,
2013-03-09 23:42:00,46.0,36.8,30.17,ENE,68,0.0,2.0,70,0.00,,,0.00,Weather View 32 v70,2013-03-10 04:42:00,
2013-03-09 23:47:00,46.0,37.1,30.16,ENE,68,1.0,2.0,71,0.00,,,0.00,Weather View 32 v70,2013-03-10 04:47:00,
2013-03-09 23:52:00,46.0,37.1,30.16,East,90,1.0,3.0,71,0.00,,,0.00,Weather View 32 v70,2013-03-10 04:52:00,
2013-03-09 23:58:00,46.0,37.1,30.16,East,90,2.0,3.0,71,0.00,,,0.00,Weather View 32 v70,2013-03-10 04:58:00,